• In Hungary
  • List of Countries
  • For 7 days
  • Water Temperature
  • Satellite Maps
  • Weather Map
  • News
  • Weather Widgets
  • user-avatar
    Login

    Hourly Weather Stanislavchyk

    Today, 14 December, Thursday

    Time Temperature Precipitation Wind Pressure Humidity
    00:00 +4°C° 0.2 mm 1 mps 746 mmHg 93%
    01:00 +4°C° 0.2 mm 1 mps 745 mmHg 94%
    02:00 +4°C° 0.2 mm 1 mps 745 mmHg 94%
    03:00 +4°C° 0.3 mm 1 mps 745 mmHg 95%
    04:00 +4°C° 0.3 mm 1 mps 745 mmHg 95%
    05:00 +4°C° 0.3 mm 1 mps 744 mmHg 95%
    06:00 +4°C° 1.1 mm 1 mps 744 mmHg 96%
    07:00 +3°C° 1.1 mm 0 mps 744 mmHg 96%
    08:00 +3°C° 1.1 mm 0 mps 744 mmHg 96%
    09:00 +3°C° 0.1 mm 0 mps 744 mmHg 94%
    10:00 +5°C° 0.1 mm 1 mps 744 mmHg 92%
    11:00 +5°C° 0.1 mm 1 mps 744 mmHg 90%
    12:00 +5°C° 0 mm 1 mps 744 mmHg 90%
    13:00 +4°C° 0 mm 2 mps 744 mmHg 89%
    14:00 +5°C° 0 mm 2 mps 743 mmHg 89%
    15:00 +4°C° 0 mm 2 mps 744 mmHg 90%
    16:00 +4°C° 0 mm 2 mps 744 mmHg 91%
    17:00 +5°C° 0 mm 1 mps 744 mmHg 92%
    18:00 +4°C° 0 mm 2 mps 744 mmHg 91%
    19:00 +4°C° 0 mm 2 mps 744 mmHg 91%
    20:00 +4°C° 0 mm 2 mps 744 mmHg 91%
    21:00 +4°C° 0 mm 2 mps 744 mmHg 92%
    22:00 +2°C° 0 mm 3 mps 744 mmHg 93%
    23:00 +2°C° 0 mm 3 mps 744 mmHg 94%

    Tomorrow, 15 December, Friday

    Time Temperature Precipitation Wind Pressure Humidity
    00:00 +2°C° 0 mm 3 mps 744 mmHg 94%
    01:00 +3°C° 0 mm 2 mps 744 mmHg 95%
    02:00 +3°C° 0 mm 2 mps 743 mmHg 95%
    03:00 +2°C° 0 mm 3 mps 743 mmHg 95%
    04:00 +2°C° 0 mm 3 mps 743 mmHg 95%
    05:00 +2°C° 0 mm 3 mps 743 mmHg 95%
    06:00 +2°C° 0 mm 3 mps 743 mmHg 95%
    07:00 +3°C° 0 mm 2 mps 743 mmHg 94%
    08:00 +3°C° 0 mm 2 mps 743 mmHg 94%
    09:00 +2°C° 0.1 mm 3 mps 743 mmHg 92%
    10:00 +3°C° 0.1 mm 3 mps 743 mmHg 90%
    11:00 +4°C° 0.1 mm 3 mps 743 mmHg 87%
    12:00 +4°C° 0 mm 3 mps 743 mmHg 85%
    13:00 +5°C° 0 mm 3 mps 743 mmHg 82%
    14:00 +7°C° 0 mm 3 mps 743 mmHg 79%
    15:00 +5°C° 0 mm 3 mps 743 mmHg 82%
    16:00 +5°C° 0 mm 3 mps 743 mmHg 84%
    17:00 +4°C° 0 mm 3 mps 743 mmHg 86%
    18:00 +4°C° 0 mm 3 mps 743 mmHg 85%
    19:00 +5°C° 0 mm 4 mps 743 mmHg 84%
    20:00 +5°C° 0 mm 4 mps 743 mmHg 83%
    21:00 +5°C° 0 mm 5 mps 743 mmHg 82%
    22:00 +5°C° 0 mm 5 mps 743 mmHg 81%
    23:00 +5°C° 0 mm 5 mps 743 mmHg 80%

    Day after tomorrow, 16 December, Saturday

    Time Temperature Precipitation Wind Pressure Humidity
    00:00 +5°C° 0 mm 5 mps 743 mmHg 82%
    01:00 +5°C° 0 mm 5 mps 743 mmHg 85%
    02:00 +5°C° 0 mm 5 mps 743 mmHg 87%
    03:00 +5°C° 0 mm 6 mps 742 mmHg 89%
    04:00 +5°C° 0 mm 6 mps 742 mmHg 91%
    05:00 +5°C° 0 mm 6 mps 741 mmHg 94%
    06:00 +6°C° 0.1 mm 7 mps 741 mmHg 92%
    07:00 +7°C° 0.1 mm 8 mps 740 mmHg 90%
    08:00 +7°C° 0.1 mm 8 mps 740 mmHg 88%
    09:00 +8°C° 0 mm 9 mps 740 mmHg 86%
    10:00 +8°C° 0 mm 9 mps 739 mmHg 84%
    11:00 +10°C° 0 mm 9 mps 739 mmHg 82%
    12:00 +10°C° 0 mm 8 mps 739 mmHg 79%
    13:00 +11°C° 0 mm 8 mps 739 mmHg 75%
    14:00 +11°C° 0 mm 7 mps 739 mmHg 71%
    15:00 +10°C° 0 mm 6 mps 739 mmHg 73%
    16:00 +9°C° 0 mm 5 mps 740 mmHg 74%
    17:00 +10°C° 0 mm 4 mps 740 mmHg 75%
    18:00 +8°C° 0.1 mm 4 mps 740 mmHg 78%
    19:00 +9°C° 0.1 mm 3 mps 741 mmHg 81%
    20:00 +9°C° 0.1 mm 3 mps 741 mmHg 84%
    21:00 +8°C° 0.4 mm 2 mps 741 mmHg 87%
    22:00 +8°C° 0.4 mm 2 mps 742 mmHg 90%
    23:00 +8°C° 0.4 mm 1 mps 742 mmHg 92%

    17 December, Sunday

    Time Temperature Precipitation Wind Pressure Humidity
    00:00 +8°C° 0.4 mm 1 mps 742 mmHg 93%
    01:00 +7°C° 0.4 mm 2 mps 742 mmHg 94%
    02:00 +7°C° 0.4 mm 2 mps 742 mmHg 95%
    03:00 +7°C° 0.5 mm 3 mps 742 mmHg 95%
    04:00 +5°C° 0.5 mm 3 mps 741 mmHg 95%
    05:00 +5°C° 0.5 mm 4 mps 741 mmHg 94%
    06:00 +5°C° 1.4 mm 4 mps 741 mmHg 94%
    07:00 +5°C° 1.4 mm 4 mps 741 mmHg 93%
    08:00 +3°C° 1.4 mm 5 mps 741 mmHg 93%
    09:00 +3°C° 2.2 mm 5 mps 741 mmHg 92%
    10:00 +3°C° 2.2 mm 6 mps 740 mmHg 92%
    11:00 +4°C° 2.2 mm 6 mps 740 mmHg 92%
    12:00 +3°C° 2.2 mm 6 mps 739 mmHg 92%
    13:00 +3°C° 2.2 mm 6 mps 739 mmHg 92%
    14:00 +3°C° 2.2 mm 6 mps 738 mmHg 92%
    15:00 +2°C° 1.4 mm 7 mps 738 mmHg 91%
    16:00 +1°C° 1.4 mm 8 mps 738 mmHg 90%
    17:00 0°C° 1.4 mm 9 mps 738 mmHg 89%
    18:00 0°C° 0.7 mm 9 mps 739 mmHg 88%
    19:00 -1°C° 0.7 mm 9 mps 740 mmHg 87%
    20:00 -1°C° 0.7 mm 9 mps 740 mmHg 86%
    21:00 -3°C° 0.4 mm 9 mps 742 mmHg 85%
    22:00 -3°C° 0.4 mm 9 mps 743 mmHg 85%
    23:00 -3°C° 0.4 mm 9 mps 744 mmHg 84%

    18 December, Monday

    Time Temperature Precipitation Wind Pressure Humidity
    00:00 -2°C° 0 mm 8 mps 745 mmHg 84%
    01:00 -2°C° 0 mm 8 mps 746 mmHg 83%
    02:00 -3°C° 0 mm 7 mps 747 mmHg 83%
    03:00 -3°C° 0 mm 6 mps 748 mmHg 84%
    04:00 -4°C° 0 mm 6 mps 749 mmHg 85%
    05:00 -4°C° 0 mm 5 mps 749 mmHg 86%
    06:00 -3°C° 0 mm 4 mps 750 mmHg 87%
    07:00 -3°C° 0 mm 4 mps 750 mmHg 88%
    08:00 -3°C° 0 mm 4 mps 751 mmHg 88%
    09:00 -2°C° 0 mm 4 mps 751 mmHg 85%
    10:00 -2°C° 0 mm 4 mps 752 mmHg 82%
    11:00 -1°C° 0 mm 5 mps 752 mmHg 78%
    12:00 -1°C° 0 mm 4 mps 752 mmHg 78%
    13:00 -1°C° 0 mm 4 mps 752 mmHg 78%
    14:00 -1°C° 0 mm 4 mps 752 mmHg 78%
    15:00 -1°C° 0 mm 3 mps 752 mmHg 81%
    16:00 -1°C° 0 mm 3 mps 753 mmHg 85%
    17:00 -2°C° 0 mm 2 mps 753 mmHg 88%
    18:00 -2°C° 0 mm 2 mps 753 mmHg 87%
    19:00 -2°C° 0 mm 2 mps 753 mmHg 87%
    20:00 -2°C° 0 mm 2 mps 754 mmHg 86%
    21:00 -2°C° 0 mm 2 mps 754 mmHg 85%
    22:00 -2°C° 0 mm 2 mps 754 mmHg 85%
    23:00 -2°C° 0 mm 2 mps 754 mmHg 84%

    19 December, Tuesday

    Time Temperature Precipitation Wind Pressure Humidity
    00:00 -3°C° 0 mm 2 mps 755 mmHg 84%
    01:00 -3°C° 0 mm 2 mps 755 mmHg 84%
    02:00 -3°C° 0 mm 2 mps 755 mmHg 84%
    03:00 -4°C° 0 mm 2 mps 755 mmHg 85%
    04:00 -4°C° 0 mm 2 mps 755 mmHg 85%
    05:00 -4°C° 0 mm 2 mps 755 mmHg 85%
    06:00 -4°C° 0 mm 2 mps 756 mmHg 85%
    07:00 -4°C° 0 mm 2 mps 756 mmHg 85%
    08:00 -4°C° 0 mm 2 mps 756 mmHg 85%
    09:00 -3°C° 0 mm 2 mps 757 mmHg 82%
    10:00 -3°C° 0 mm 2 mps 757 mmHg 79%
    11:00 -2°C° 0 mm 2 mps 758 mmHg 76%
    12:00 -2°C° 0 mm 2 mps 758 mmHg 77%
    13:00 -1°C° 0 mm 2 mps 758 mmHg 77%
    14:00 -1°C° 0 mm 3 mps 758 mmHg 78%
    15:00 -2°C° 0 mm 2 mps 758 mmHg 81%
    16:00 -3°C° 0 mm 2 mps 758 mmHg 85%
    17:00 -3°C° 0 mm 2 mps 759 mmHg 89%
    18:00 -3°C° 0 mm 2 mps 759 mmHg 89%
    19:00 -4°C° 0 mm 2 mps 759 mmHg 90%
    20:00 -4°C° 0 mm 2 mps 759 mmHg 90%
    21:00 -4°C° 0 mm 2 mps 760 mmHg 90%
    22:00 -4°C° 0 mm 2 mps 760 mmHg 90%
    23:00 -4°C° 0 mm 2 mps 760 mmHg 90%
    Show more